Location: Lake Sonoma
(38.7200°N, 123.0564°W)
Time: 12:30:18
(UTC-07:00)

Amateur Radio Satellites - All Passes

Search period start: 21 September 2017 12:00
Search period end: 22 September 2017 12:00
Location: Lake Sonoma, 38.7200°N, 123.0564°W

Satellite Date Start Highest point End Downlink Frequencies (MHz)
Time Altitude Azimuth
O/OREOS (USA 219) 21 Sep 12:06:48 12:09:26 15° 55° (NE) 12:12:03 437.305
DUCHIFAT 1 21 Sep 12:25:37 12:29:45 77° 76° (ENE) 12:33:58 145.980
LO-87 21 Sep 12:30:14 12:33:50 80° 281° (W) 12:37:26 145.935 - 145.965
POLYITAN 1 21 Sep 12:35:29 12:39:38 62° 260° (W) 12:43:50 437.675
EO-79 21 Sep 12:40:36 12:44:42 54° 260° (W) 12:48:50 145.935-145.965
ESTCUBE 1 21 Sep 12:42:36 12:47:08 78° 103° (ESE) 12:51:36 437.505/2401.250
QB50P2 21 Sep 12:53:38 12:57:27 34° 263° (W) 13:01:19 145.880/145.840
Gurwin Techsat 1B 21 Sep 13:09:17 13:13:15 22° 65° (ENE) 13:17:14 435.225
BUGSAT 1 21 Sep 13:11:11 13:15:08 64° 75° (ENE) 13:19:08 437.445
M-CUBED/EXP-1 PRIME 21 Sep 13:18:54 13:23:02 39° 256° (WSW) 13:26:56 437.505
VELOX 1 21 Sep 13:22:52 13:26:55 36° 98° (E) 13:30:58 145.980
NANOSAT C BR1 21 Sep 13:33:12 13:35:44 16° 267° (W) 13:38:19 145.865
SPROUT 21 Sep 13:41:01 13:45:20 86° 107° (ESE) 13:49:37 437.525
Oscar 19 21 Sep 13:42:46 13:47:55 66° 74° (ENE) 13:53:05 437.125/150
O/OREOS (USA 219) 21 Sep 13:44:42 13:49:13 57° 253° (WSW) 13:53:43 437.305
YUBILEINY 21 Sep 13:49:45 13:58:21 64° 280° (W) 14:07:00 435.215
RS-15 21 Sep 13:52:26 14:03:25 38° 40° (NE) 14:13:50 29.354- 29.394
NO-84 21 Sep 13:54:20 13:58:09 53° 132° (SE) 14:01:40 435.350 FM
AO-7 21 Sep 13:55:46 14:01:07 19° 52° (NE) 14:06:27 .
SO-50 21 Sep 13:55:58 13:58:20 14° 109° (ESE) 14:00:42 436.795
50 SAT 21 Sep 14:24:56 14:28:15 66° 102° (ESE) 14:31:30 437.505
UKube-1 21 Sep 14:37:48 14:41:51 39° 99° (E) 14:45:53 .
DX 1 21 Sep 14:39:25 14:43:45 67° 102° (ESE) 14:48:02 434.975-435.025
ITAMSAT 1 21 Sep 14:44:34 14:47:47 17° 63° (ENE) 14:51:00 435.822/435.867
Gurwin Techsat 1B 21 Sep 14:47:47 14:52:50 46° 261° (W) 14:57:57 435.225
VELOX 1 21 Sep 14:59:59 15:03:05 19° 293° (WNW) 15:06:11 145.980
Oscar 19 21 Sep 15:25:05 15:27:39 14° 269° (W) 15:30:14 437.125/150
MOZHAYETS 4 21 Sep 15:26:07 15:28:54 16° 92° (E) 15:31:41
ITUPSAT 1 21 Sep 15:32:15 15:35:32 18° 93° (E) 15:38:50 437.325
NO-84 21 Sep 15:32:57 15:35:43 20° 327° (NNW) 15:38:19 435.350 FM
SO-50 21 Sep 15:33:53 15:38:17 56° 304° (NW) 15:42:43 436.795
AO-7 21 Sep 15:44:21 15:52:43 85° 71° (ENE) 16:01:05 .
PCSat 21 Sep 15:46:00 15:51:25 87° 119° (ESE) 15:56:53 145.827
YUBILEINY 21 Sep 15:55:10 15:57:06 11° 302° (WNW) 15:59:03 435.215
RS-15 21 Sep 16:05:03 16:16:52 72° 245° (WSW) 16:28:02 29.354- 29.394
BEESAT 21 Sep 16:09:32 16:14:09 46° 100° (E) 16:18:44 436.000
UKube-1 21 Sep 16:14:44 16:17:33 17° 294° (WNW) 16:20:21 .
DX 1 21 Sep 16:18:12 16:19:19 11° 298° (WNW) 16:20:26 434.975-435.025
ITAMSAT 1 21 Sep 16:21:39 16:26:44 59° 259° (W) 16:31:51 435.822/435.867
MOZHAYETS 4 21 Sep 17:01:50 17:06:17 47° 287° (WNW) 17:10:43
ITUPSAT 1 21 Sep 17:08:58 17:13:32 44° 289° (WNW) 17:18:05 437.325
CUBESAT XI-V 21 Sep 17:21:47 17:26:22 56° 101° (E) 17:30:52 437.345
XW-2B 21 Sep 17:27:09 17:28:51 13° 66° (ENE) 17:30:34 145.730 - 145.750
XW-2F 21 Sep 17:29:02 17:30:44 13° 66° (ENE) 17:32:25 145.980 - 146.000
DOVE 4 21 Sep 17:29:51 17:34:18 60° 75° (ENE) 17:38:33 437.250
PCSat 21 Sep 17:32:25 17:35:33 15° 316° (NW) 17:38:41 145.827
KKS-1 21 Sep 17:38:51 17:42:40 28° 97° (E) 17:46:29 437.445
HO-68 21 Sep 17:38:57 17:42:03 13° 53° (NE) 17:45:08 435.675
AO-7 21 Sep 17:40:59 17:46:19 18° 268° (W) 17:51:41 .
XW-2C 21 Sep 17:46:54 17:49:54 22° 70° (ENE) 17:52:55 145.795 - 145.815
BEESAT 21 Sep 17:48:16 17:51:32 19° 295° (WNW) 17:54:48 436.000
CUTE-I 21 Sep 17:53:50 17:58:23 30° 67° (ENE) 18:02:58 437.470
LilacSat-2 21 Sep 17:55:57 17:59:21 30° 71° (ENE) 18:02:47 437.200
NUDT-PHONESAT 21 Sep 17:58:41 18:01:33 21° 70° (ENE) 18:04:26 437.300
STARS 21 Sep 18:09:51 18:13:27 24° 96° (E) 18:17:02 437.465
RS-15 21 Sep 18:21:50 18:26:53 14° 265° (W) 18:31:51 29.354- 29.394
KAITUO 1B 21 Sep 18:22:39 18:26:16 44° 74° (ENE) 18:29:54 145.475/437.950
SEEDS 21 Sep 18:43:54 18:45:51 13° 65° (ENE) 18:47:47 437.485
XW-2D 21 Sep 18:46:31 18:50:18 60° 259° (W) 18:54:08 145.860 - 145.880
XW-2B 21 Sep 18:58:57 19:02:37 43° 261° (W) 19:06:19 145.730 - 145.750
CUBESAT XI-V 21 Sep 19:00:46 19:03:12 14° 296° (WNW) 19:05:37 437.345
XW-2F 21 Sep 19:00:48 19:04:26 43° 261° (W) 19:08:06 145.980 - 146.000
CUTE 1.7 + AOD 2 21 Sep 19:05:16 19:09:11 36° 72° (ENE) 19:13:09 437.475
DOVE 4 21 Sep 19:11:06 19:12:16 11° 268° (W) 19:13:26 437.250
CUBEBUG 2 21 Sep 19:12:05 19:15:26 23° 68° (ENE) 19:18:53 437.445
AAUSAT CUBESAT 2 21 Sep 19:13:45 19:15:21 12° 65° (ENE) 19:16:57 437.432
KKS-1 21 Sep 19:15:28 19:19:05 25° 292° (WNW) 19:22:43 437.445
XW-2C 21 Sep 19:20:51 19:23:57 23° 265° (W) 19:27:04 145.795 - 145.815
HO-68 21 Sep 19:21:26 19:28:31 73° 72° (ENE) 19:35:40 435.675
UWE-3 21 Sep 19:24:06 19:27:05 19° 67° (ENE) 19:30:07 435.000/436.395/437.385
LilacSat-2 21 Sep 19:31:05 19:33:39 17° 267° (W) 19:36:14 437.200
NUDT-PHONESAT 21 Sep 19:32:16 19:35:17 23° 265° (W) 19:38:19 437.300
CUTE-I 21 Sep 19:33:38 19:38:20 32° 263° (W) 19:43:03 437.470
STRAND 1 21 Sep 19:35:51 19:39:12 17° 93° (E) 19:42:33 437.568
STARS 21 Sep 19:45:58 19:49:43 28° 291° (WNW) 19:53:28 437.465
KAITUO 1B 21 Sep 19:59:18 20:00:27 11° 269° (W) 20:01:37 145.475/437.950
AO-73 21 Sep 20:14:13 20:18:00 31° 71° (ENE) 20:21:54 145.935
ZACube-1 21 Sep 20:15:33 20:19:29 36° 72° (ENE) 20:23:32 437.345
Oscar 11 21 Sep 20:16:18 20:19:46 24° 69° (ENE) 20:23:16 .
BEESAT 3 21 Sep 20:16:23 20:20:09 41° 116° (ESE) 20:23:58 437.485
SEEDS 21 Sep 20:16:54 20:21:03 52° 260° (W) 20:25:13 437.485
XW-2A 21 Sep 20:19:58 20:23:19 60° 260° (W) 20:26:43 145.665 - 145.685
BEESAT 2 21 Sep 20:20:41 20:22:36 13° 109° (ESE) 20:24:31 435.950
NO-84 21 Sep 20:29:51 20:31:53 16° 31° (NNE) 20:33:50 435.350 FM
CUTE 1.7 + AOD 2 21 Sep 20:42:14 20:45:07 18° 267° (W) 20:48:01 437.475
Tancredo 1 21 Sep 20:45:01 20:47:42 65° 322° (NW) 20:50:23 437.200
AAUSAT CUBESAT 2 21 Sep 20:46:13 20:50:17 55° 260° (W) 20:54:24 437.432
CUBEBUG 2 21 Sep 20:48:20 20:51:55 27° 265° (W) 20:55:36 437.445
nSIGHT-1 21 Sep 20:58:35 21:01:06 21° 132° (SE) 21:03:38 .
UWE-3 21 Sep 20:59:20 21:03:14 35° 263° (W) 21:07:16 435.000/436.395/437.385
AO-85 21 Sep 21:00:22 21:04:01 39° 116° (ESE) 21:07:40 145.980
DELFI C3 21 Sep 21:01:20 21:03:40 15° 67° (ENE) 21:05:59 145.870
HO-68 21 Sep 21:12:00 21:16:49 19° 268° (W) 21:21:41 435.675
STRAND 1 21 Sep 21:13:40 21:18:38 52° 288° (WNW) 21:23:38 437.568
ISS 21 Sep 21:50:29 21:53:44 73° 140° (SE) 21:57:01 437.550
AO-73 21 Sep 21:51:01 21:54:16 21° 267° (W) 21:57:35 145.935
Oscar 11 21 Sep 21:52:01 21:55:45 28° 264° (W) 21:59:31 .
ZACube-1 21 Sep 21:52:58 21:55:54 18° 268° (W) 21:58:52 437.345
FO-29 21 Sep 21:54:53 22:00:07 44° 100° (E) 22:05:53 435.910
BEESAT 3 21 Sep 21:55:02 21:57:53 18° 313° (NW) 22:00:45 437.485
BEESAT 2 21 Sep 21:56:00 21:59:53 49° 305° (NW) 22:03:50 435.950
JUGNU 21 Sep 21:56:43 21:58:35 11° 180° (S) 22:00:28 437.505
TIGRISAT 21 Sep 21:58:14 22:00:28 13° 91° (E) 22:02:42 435.000
EO-88 21 Sep 22:01:34 22:05:01 41° 74° (ENE) 22:08:30 145.990 - 145.960
NO-84 21 Sep 22:06:39 22:09:22 36° 230° (SW) 22:11:59 435.350 FM
YUBILEINY 21 Sep 22:09:51 22:11:13 10° 57° (ENE) 22:12:34 435.215
Tancredo 1 21 Sep 22:21:58 22:22:41 11° 340° (NNW) 22:23:26 437.200
SO-50 21 Sep 22:27:34 22:29:31 12° 41° (NE) 22:31:29 436.795
Max Valier Satellite 21 Sep 22:29:35 22:33:13 56° 260° (W) 22:36:54 145.860
nSIGHT-1 21 Sep 22:34:15 22:37:16 36° 327° (NNW) 22:40:19 .
DELFI C3 21 Sep 22:34:24 22:38:05 37° 262° (W) 22:41:46 145.870
AO-85 21 Sep 22:41:54 22:44:34 17° 313° (NW) 22:47:15 145.980
LO-87 21 Sep 23:04:56 23:08:01 29° 72° (ENE) 23:11:08 145.935 - 145.965
UNISAT 6 21 Sep 23:08:29 23:13:10 85° 103° (ESE) 23:17:53 437.425
PRISM 21 Sep 23:08:29 23:12:19 40° 99° (E) 23:16:08 437.425
ISS 21 Sep 23:28:11 23:30:32 18° 337° (NNW) 23:32:53 437.550
TIGRISAT 21 Sep 23:32:52 23:37:27 58° 286° (WNW) 23:42:03 435.000
EO-88 21 Sep 23:37:52 23:38:52 11° 268° (W) 23:39:52 145.990 - 145.960
ESTCUBE 1 21 Sep 23:40:21 23:44:48 60° 75° (ENE) 23:49:17 437.505/2401.250
FO-29 21 Sep 23:40:44 23:45:01 24° 293° (WNW) 23:49:36 435.910
YUBILEINY 22 Sep 00:01:23 00:10:01 62° 79° (E) 00:18:39 435.215
SO-50 22 Sep 00:06:02 00:10:39 86° 60° (ENE) 00:15:19 436.795
DUCHIFAT 1 22 Sep 00:12:23 00:14:29 13° 92° (E) 00:16:34 145.980
nSIGHT-1 22 Sep 00:13:22 00:14:21 11° 347° (NNW) 00:15:19 .
VELOX 1 22 Sep 00:18:49 00:22:33 28° 69° (ENE) 00:26:17 145.980
POLYITAN 1 22 Sep 00:21:58 00:25:23 23° 95° (E) 00:28:47 437.675
EO-79 22 Sep 00:26:43 00:30:17 26° 96° (E) 00:33:52 145.935-145.965
AIST 2D 22 Sep 00:30:23 00:33:55 89° 106° (ESE) 00:37:25 435.315
SPROUT 22 Sep 00:32:37 00:36:43 52° 74° (ENE) 00:40:51 437.525
PCSat 22 Sep 00:35:16 00:40:34 52° 58° (ENE) 00:45:50 145.827
QB50P2 22 Sep 00:39:15 00:43:17 39° 98° (E) 00:47:18 145.880/145.840
LO-87 22 Sep 00:39:35 00:41:30 14° 267° (W) 00:43:25 145.935 - 145.965
PRISM 22 Sep 00:44:54 00:47:14 15° 294° (WNW) 00:49:34 437.425
50 SAT 22 Sep 00:54:14 00:56:26 17° 69° (ENE) 00:58:39 437.505
BUGSAT 1 22 Sep 00:56:51 00:57:29 10° 91° (E) 00:58:07 437.445
SRMSAT 22 Sep 01:05:59 01:07:49 11° 182° (S) 01:09:40 437.500
NANOSAT C BR1 22 Sep 01:16:33 01:20:51 88° 112° (ESE) 01:25:05 145.865
ESTCUBE 1 22 Sep 01:20:15 01:21:57 12° 269° (W) 01:23:40 437.505/2401.250
UKube-1 22 Sep 01:30:58 01:34:40 28° 69° (ENE) 01:38:21 .
Tancredo 1 22 Sep 01:33:04 01:33:57 11° 20° (NNE) 01:34:51 437.200
DX 1 22 Sep 01:33:20 01:37:30 48° 72° (ENE) 01:41:41 434.975-435.025
DUCHIFAT 1 22 Sep 01:46:16 01:50:22 47° 287° (WNW) 01:54:26 145.980
VELOX 1 22 Sep 01:55:21 01:58:56 24° 264° (W) 02:02:32 145.980
Oscar 19 22 Sep 01:56:18 02:00:32 25° 95° (E) 02:04:44 437.125/150
POLYITAN 1 22 Sep 01:57:27 02:01:07 28° 290° (WNW) 02:04:48 437.675
YUBILEINY 22 Sep 01:59:17 02:06:07 27° 278° (W) 02:12:59 435.215
EO-79 22 Sep 02:02:26 02:05:56 25° 291° (WNW) 02:09:26 145.935-145.965
SPROUT 22 Sep 02:11:20 02:12:54 12° 269° (W) 02:14:29 437.525
QB50P2 22 Sep 02:15:58 02:18:44 17° 294° (WNW) 02:21:29 145.880/145.840
O/OREOS (USA 219) 22 Sep 02:17:45 02:20:53 19° 100° (E) 02:24:01 437.305
PCSat 22 Sep 02:19:39 02:23:31 20° 255° (WSW) 02:27:23 145.827
50 SAT 22 Sep 02:26:09 02:28:46 21° 264° (W) 02:31:23 437.505
MOZHAYETS 4 22 Sep 02:27:24 02:29:43 14° 64° (ENE) 02:32:04
BUGSAT 1 22 Sep 02:29:01 02:33:09 60° 285° (WNW) 02:37:19 437.445
M-CUBED/EXP-1 PRIME 22 Sep 02:33:07 02:36:11 35° 292° (WNW) 02:39:10 437.505
ITUPSAT 1 22 Sep 02:37:53 02:41:14 19° 65° (ENE) 02:44:36 437.325
ISS 22 Sep 02:44:05 02:45:46 13° 18° (NNE) 02:47:28 437.550
Gurwin Techsat 1B 22 Sep 03:04:58 03:10:18 79° 103° (ESE) 03:15:37 435.225
Tancredo 1 22 Sep 03:06:13 03:08:56 70° 40° (NE) 03:11:36 437.200
UKube-1 22 Sep 03:07:14 03:10:38 23° 264° (W) 03:14:03 .
DX 1 22 Sep 03:11:44 03:13:55 14° 268° (W) 03:16:07 434.975-435.025
BEESAT 22 Sep 03:14:25 03:18:56 45° 72° (ENE) 03:23:30 436.000
nSIGHT-1 22 Sep 03:26:33 03:29:13 23° 27° (NNE) 03:31:52 .
Oscar 19 22 Sep 03:35:12 03:39:53 36° 291° (WNW) 03:44:33 437.125/150
AO-7 22 Sep 03:48:13 03:55:17 30° 97° (E) 04:02:17 .
O/OREOS (USA 219) 22 Sep 03:55:47 03:59:57 37° 297° (WNW) 04:04:12 437.305
MOZHAYETS 4 22 Sep 04:01:48 04:06:20 59° 259° (W) 04:10:56
ITUPSAT 1 22 Sep 04:14:11 04:18:43 43° 261° (W) 04:23:17 437.325
RS-15 22 Sep 04:17:16 04:25:32 22° 99° (E) 04:33:49 29.354- 29.394
ISS 22 Sep 04:19:34 04:22:49 56° 36° (NE) 04:26:04 437.550
CUBESAT XI-V 22 Sep 04:23:21 04:27:51 47° 73° (ENE) 04:32:23 437.345
BEESAT 3 22 Sep 04:34:48 04:37:35 18° 47° (NE) 04:40:19 437.485
ITAMSAT 1 22 Sep 04:35:40 04:40:47 54° 101° (E) 04:45:52 435.822/435.867
KKS-1 22 Sep 04:35:51 04:39:17 23° 68° (ENE) 04:42:44 437.445
Gurwin Techsat 1B 22 Sep 04:47:05 04:49:32 13° 300° (WNW) 04:51:59 435.225
BEESAT 22 Sep 04:53:48 04:56:55 17° 267° (W) 05:00:02 436.000
nSIGHT-1 22 Sep 05:02:33 05:05:40 44° 224° (SW) 05:08:46 .
STARS 22 Sep 05:05:35 05:08:39 19° 66° (ENE) 05:11:44 437.465
DOVE 4 22 Sep 05:30:30 05:33:11 16° 94° (E) 05:35:55 437.250
AO-85 22 Sep 05:31:50 05:35:40 28° 51° (NE) 05:39:45 145.980
AO-7 22 Sep 05:40:19 05:48:22 57° 294° (WNW) 05:56:23 .
ISS 22 Sep 05:57:12 05:58:57 14° 231° (SW) 06:00:43 437.550
CUBESAT XI-V 22 Sep 06:02:31 06:05:26 16° 268° (W) 06:08:21 437.345
BEESAT 3 22 Sep 06:11:35 06:15:18 40° 245° (WSW) 06:18:58 437.485
KKS-1 22 Sep 06:11:45 06:15:39 30° 263° (W) 06:19:35 437.445
CUTE-I 22 Sep 06:13:40 06:15:55 13° 90° (E) 06:18:08 437.470
BEESAT 2 22 Sep 06:14:35 06:18:36 60° 56° (ENE) 06:22:33 435.950
ITAMSAT 1 22 Sep 06:16:18 06:19:47 18° 297° (WNW) 06:23:16 435.822/435.867
XW-2D 22 Sep 06:21:29 06:23:41 15° 93° (E) 06:25:52 145.860 - 145.880
RS-15 22 Sep 06:23:58 06:36:15 87° 119° (ESE) 06:48:39 29.354- 29.394
XW-2B 22 Sep 06:33:14 06:36:04 20° 94° (E) 06:38:52 145.730 - 145.750
XW-2F 22 Sep 06:34:38 06:37:26 19° 94° (E) 06:40:12 145.980 - 146.000
STARS 22 Sep 06:40:43 06:44:43 36° 262° (W) 06:48:44 437.465
STRAND 1 22 Sep 06:50:23 06:54:16 22° 66° (ENE) 06:58:10 437.568
HO-68 22 Sep 06:53:22 06:56:37 13° 89° (E) 06:59:51 435.675
XW-2C 22 Sep 06:53:54 06:57:28 36° 98° (E) 07:00:58 145.795 - 145.815
NUDT-PHONESAT 22 Sep 07:03:02 07:06:26 33° 97° (E) 07:09:48 437.300
LilacSat-2 22 Sep 07:04:01 07:07:47 54° 100° (E) 07:11:31 437.200
DOVE 4 22 Sep 07:07:04 07:11:00 38° 287° (WNW) 07:15:04 437.250
AO-85 22 Sep 07:12:01 07:16:04 33° 245° (WSW) 07:20:24 145.980
KAITUO 1B 22 Sep 07:28:35 07:32:21 78° 102° (ESE) 07:36:04 145.475/437.950
AO-7 22 Sep 07:36:35 07:39:20 12° 314° (NW) 07:42:05 .
CUTE-I 22 Sep 07:51:08 07:56:28 74° 285° (WNW) 08:01:46 437.470
XW-2D 22 Sep 07:54:30 07:57:57 33° 288° (WNW) 08:01:21 145.860 - 145.880
BEESAT 2 22 Sep 07:54:51 07:55:47 11° 253° (WSW) 07:56:41 435.950
SEEDS 22 Sep 08:02:14 08:05:46 26° 96° (E) 08:09:17 437.485
XW-2B 22 Sep 08:07:02 08:10:11 25° 290° (WNW) 08:13:18 145.730 - 145.750
XW-2F 22 Sep 08:08:21 08:11:30 25° 289° (WNW) 08:14:36 145.980 - 146.000
FO-29 22 Sep 08:08:48 08:11:54 15° 63° (ENE) 08:14:54 435.910
CUTE 1.7 + AOD 2 22 Sep 08:26:37 08:30:52 88° 101° (ESE) 08:35:04 437.475
STRAND 1 22 Sep 08:28:23 08:33:09 41° 261° (W) 08:37:59 437.568
XW-2C 22 Sep 08:29:13 08:31:17 14° 293° (WNW) 08:33:20 145.795 - 145.815
AAUSAT CUBESAT 2 22 Sep 08:29:56 08:33:16 23° 95° (E) 08:36:34 437.432
NUDT-PHONESAT 22 Sep 08:37:50 08:39:59 15° 293° (WNW) 08:42:09 437.300
HO-68 22 Sep 08:37:59 08:45:13 86° 106° (ESE) 08:52:26 435.675
CUBEBUG 2 22 Sep 08:39:01 08:43:43 67° 101° (E) 08:48:26 437.445
RS-15 22 Sep 08:39:42 08:50:26 33° 324° (NW) 09:01:09 29.354- 29.394
LilacSat-2 22 Sep 08:41:05 08:41:32 10° 295° (WNW) 08:42:00 437.200
UWE-3 22 Sep 08:49:24 08:53:57 49° 99° (E) 08:58:28 435.000/436.395/437.385
XW-2A 22 Sep 09:15:23 09:18:41 45° 285° (WNW) 09:21:57 145.665 - 145.685
SEEDS 22 Sep 09:38:00 09:41:19 23° 291° (WNW) 09:44:36 437.485
AO-73 22 Sep 09:38:39 09:43:16 82° 102° (ESE) 09:47:49 145.935
Oscar 11 22 Sep 09:39:42 09:43:59 57° 100° (E) 09:48:13 .
ZACube-1 22 Sep 09:40:33 09:45:10 84° 284° (WNW) 09:49:44 437.345
FO-29 22 Sep 09:50:43 09:56:34 67° 258° (WSW) 10:01:54 435.910
PRISM 22 Sep 09:56:34 09:59:54 24° 69° (ENE) 10:03:13 437.425
Max Valier Satellite 22 Sep 10:01:59 10:04:00 14° 93° (E) 10:05:59 145.860
AAUSAT CUBESAT 2 22 Sep 10:05:15 10:08:37 25° 290° (WNW) 10:11:58 437.432
UNISAT 6 22 Sep 10:05:47 10:10:01 60° 74° (ENE) 10:14:23 437.425
DELFI C3 22 Sep 10:12:30 10:15:51 27° 96° (E) 10:19:11 145.870
CUBEBUG 2 22 Sep 10:17:39 10:19:45 13° 296° (WNW) 10:21:51 437.445
UWE-3 22 Sep 10:27:02 10:29:57 17° 294° (WNW) 10:32:53 435.000/436.395/437.385
HO-68 22 Sep 10:27:28 10:32:02 18° 304° (WNW) 10:36:34 435.675
TIGRISAT 22 Sep 10:29:51 10:34:09 79° 259° (WSW) 10:38:34 435.000
RS-15 22 Sep 11:00:36 11:08:30 19° 359° (N) 11:16:16 29.354- 29.394
AIST 2D 22 Sep 11:03:27 11:06:21 24° 71° (ENE) 11:09:15 435.315
EO-88 22 Sep 11:04:39 11:08:18 68° 101° (ESE) 11:11:56 145.990 - 145.960
YUBILEINY 22 Sep 11:10:49 11:13:39 12° 75° (ENE) 11:16:28 435.215
POLYITAN 1 22 Sep 11:14:07 11:16:31 15° 65° (ENE) 11:18:55 437.675
Oscar 11 22 Sep 11:17:44 11:19:35 13° 296° (WNW) 11:21:27 .
EO-79 22 Sep 11:18:31 11:21:11 17° 66° (ENE) 11:23:52 145.935-145.965
QB50P2 22 Sep 11:30:42 11:34:08 25° 69° (ENE) 11:37:37 145.880/145.840
PRISM 22 Sep 11:31:44 11:35:04 24° 264° (W) 11:38:25 437.425
Max Valier Satellite 22 Sep 11:34:31 11:37:55 34° 287° (WNW) 11:41:18 145.860
ESTCUBE 1 22 Sep 11:35:44 11:38:01 14° 92° (E) 11:40:17 437.505/2401.250
M-CUBED/EXP-1 PRIME 22 Sep 11:43:51 11:46:32 16° 63° (ENE) 11:49:07 437.505
UNISAT 6 22 Sep 11:46:08 11:47:08 11° 270° (W) 11:48:08 437.425
DELFI C3 22 Sep 11:47:34 11:50:25 20° 291° (WNW) 11:53:17 145.870
